| time (UTC) | temp F | wind direction | speed knots | gust knots | rain 1hr in | rain 24hr in | rain mn in | humidity % | barometer mb |
| 20260507032519 | 56 | 0.0 | 1.7 | 0.00 | 0.00 | 0.00 | 82 | 1018.8 | |
| 20260507031520 | 57 | 0.0 | 1.7 | 0.00 | 0.00 | 0.00 | 81 | 1018.7 | |
| 20260507030520 | 57 | 0.0 | 0.0 | 0.00 | 0.00 | 0.00 | 82 | 1018.7 | |
| 20260507025518 | 57 | 0.0 | 0.0 | 0.00 | 0.00 | 0.00 | 82 | 1018.7 | |
| 20260507024518 | 57 | 0.0 | 0.0 | 0.00 | 0.00 | 0.00 | 81 | 1018.6 | |
| 20260507023518 | 57 | 0.0 | 0.0 | 0.00 | 0.00 | 0.00 | 80 | 1018.5 | |
| 20260507022600 | 57 | 0.0 | 1.7 | 0.00 | 0.00 | 0.00 | 80 | 1018.5 | |
| 20260507021518 | 57 | 0.0 | 0.0 | 0.00 | 0.00 | 0.00 | 81 | 1018.5 | |
| 20260507020519 | 57 | 0.0 | 1.7 | 0.00 | 0.00 | 0.00 | 80 | 1018.4 | |
| 20260507015518 | 57 | 0.0 | 1.7 | 0.00 | 0.00 | 0.00 | 79 | 1018.4 | |
| 20260507014519 | 57 | 0.0 | 1.7 | 0.00 | 0.00 | 0.00 | 79 | 1018.4 | |
| 20260507013518 | 57 | 0.0 | 1.7 | 0.00 | 0.00 | 0.00 | 79 | 1018.4 | |
| 20260507012518 | 57 | 0.0 | 1.7 | 0.00 | 0.00 | 0.00 | 78 | 1018.4 | |
| 20260507011519 | 58 | 0.0 | 1.7 | 0.00 | 0.00 | 0.00 | 78 | 1018.5 | |
| 20260507010520 | 58 | 0.0 | 1.7 | 0.00 | 0.00 | 0.00 | 78 | 1018.6 | |
| 20260507005518 | 58 | 0.0 | 1.7 | 0.00 | 0.00 | 0.00 | 78 | 1018.6 | |
| 20260507004519 | 58 | 0.0 | 1.7 | 0.00 | 0.00 | 0.00 | 77 | 1018.6 | |
| 20260507003518 | 58 | 180 | 0.9 | 3.5 | 0.00 | 0.00 | 0.00 | 77 | 1018.6 |
| 20260507002519 | 58 | 0.0 | 1.7 | 0.00 | 0.00 | 0.00 | 77 | 1018.5 | |
| 20260507001519 | 58 | 0.0 | 1.7 | 0.00 | 0.00 | 0.00 | 77 | 1018.5 | |
| 20260507000523 | 58 | 0.0 | 1.7 | 0.00 | 0.00 | 0.00 | 78 | 1018.5 | |
| 20260506235518 | 58 | 0.0 | 1.7 | 0.00 | 0.00 | 0.00 | 77 | 1018.5 | |
| 20260506234518 | 58 | 0.0 | 1.7 | 0.00 | 0.00 | 0.00 | 78 | 1018.5 | |
| 20260506233518 | 58 | 0.0 | 1.7 | 0.00 | 0.00 | 0.00 | 78 | 1018.6 | |
| 20260506232518 | 58 | 0.0 | 1.7 | 0.00 | 0.00 | 0.00 | 77 | 1018.7 | |
| 20260506231539 | 58 | 0.0 | 1.7 | 0.00 | 0.00 | 0.00 | 78 | 1018.6 | |
| 20260506230519 | 58 | 180 | 0.9 | 4.3 | 0.00 | 0.00 | 0.00 | 77 | 1018.6 |
| 20260506225519 | 58 | 0.0 | 1.7 | 0.00 | 0.00 | 0.00 | 77 | 1018.7 | |
| 20260506224518 | 58 | 0.0 | 1.7 | 0.00 | 0.00 | 0.00 | 78 | 1018.7 | |
| 20260506223518 | 58 | 0.0 | 1.7 | 0.00 | 0.00 | 0.00 | 76 | 1018.8 | |
| 20260506222520 | 58 | 0.0 | 1.7 | 0.00 | 0.00 | 0.00 | 78 | 1018.7 | |
| 20260506221518 | 58 | 0.0 | 0.0 | 0.00 | 0.00 | 0.00 | 78 | 1018.7 | |
| 20260506220517 | 57 | 0.0 | 1.7 | 0.00 | 0.00 | 0.00 | 78 | 1018.9 | |
| 20260506215517 | 57 | 180 | 0.9 | 5.2 | 0.00 | 0.00 | 0.00 | 77 | 1018.8 |
| 20260506214518 | 57 | 0.0 | 0.0 | 0.00 | 0.00 | 0.00 | 77 | 1018.8 | |
| 20260506213518 | 57 | 0.0 | 1.7 | 0.00 | 0.00 | 0.00 | 76 | 1018.8 | |
| 20260506212517 | 58 | 0.0 | 2.6 | 0.00 | 0.00 | 0.00 | 76 | 1018.7 | |
| 20260506211519 | 57 | 0.0 | 2.6 | 0.00 | 0.00 | 0.00 | 76 | 1018.9 | |
| 20260506210518 | 57 | 0.0 | 0.9 | 0.00 | 0.00 | 0.00 | 77 | 1019.0 | |
| 20260506205517 | 57 | 0.0 | 1.7 | 0.00 | 0.00 | 0.00 | 76 | 1019.0 | |
| 20260506204519 | 57 | 0.0 | 0.9 | 0.00 | 0.00 | 0.00 | 76 | 1018.8 | |
| 20260506203517 | 57 | 180 | 0.9 | 4.3 | 0.00 | 0.00 | 0.00 | 75 | 1018.8 |
| 20260506202518 | 57 | 0.0 | 1.7 | 0.00 | 0.00 | 0.00 | 76 | 1018.8 | |
| 20260506201519 | 57 | 135 | 0.9 | 3.5 | 0.00 | 0.00 | 0.00 | 77 | 1018.8 |
| 20260506200519 | 56 | 180 | 1.7 | 5.2 | 0.00 | 0.00 | 0.00 | 77 | 1018.7 |
| 20260506195518 | 56 | 0.0 | 1.7 | 0.00 | 0.00 | 0.00 | 77 | 1018.7 | |
| 20260506194518 | 56 | 0.0 | 4.3 | 0.00 | 0.00 | 0.00 | 78 | 1018.7 | |
| 20260506193538 | 56 | 180 | 0.9 | 3.5 | 0.00 | 0.00 | 0.00 | 78 | 1018.6 |
| 20260506192523 | 56 | 180 | 0.9 | 2.6 | 0.00 | 0.00 | 0.00 | 78 | 1018.6 |
| 20260506191538 | 55 | 158 | 0.9 | 4.3 | 0.00 | 0.00 | 0.00 | 79 | 1018.6 |
| 20260506190601 | 55 | 180 | 0.9 | 6.1 | 0.00 | 0.00 | 0.00 | 81 | 1018.5 |
| 20260506185517 | 54 | 0.0 | 2.6 | 0.00 | 0.00 | 0.00 | 81 | 1018.5 | |
| 20260506184517 | 54 | 180 | 0.9 | 4.3 | 0.00 | 0.00 | 0.00 | 81 | 1018.4 |
| 20260506183517 | 54 | 203 | 0.9 | 3.5 | 0.00 | 0.00 | 0.00 | 83 | 1018.5 |
| 20260506182517 | 54 | 158 | 1.7 | 6.1 | 0.00 | 0.00 | 0.00 | 83 | 1018.5 |
| 20260506181517 | 54 | 0.0 | 5.2 | 0.00 | 0.00 | 0.00 | 84 | 1018.5 | |
| 20260506180517 | 54 | 0.0 | 2.6 | 0.00 | 0.00 | 0.00 | 85 | 1018.4 | |
| 20260506175541 | 54 | 0.0 | 2.6 | 0.00 | 0.00 | 0.00 | 84 | 1018.5 | |
| 20260506174517 | 54 | 180 | 0.9 | 4.3 | 0.00 | 0.00 | 0.00 | 84 | 1018.4 |
| 20260506173517 | 54 | 0.0 | 2.6 | 0.00 | 0.00 | 0.00 | 84 | 1018.0 | |
| 20260506172517 | 54 | 180 | 0.9 | 2.6 | 0.00 | 0.00 | 0.00 | 85 | 1018.0 |
| 20260506171517 | 54 | 180 | 1.7 | 6.1 | 0.00 | 0.00 | 0.00 | 86 | 1018.2 |
| 20260506170517 | 54 | 158 | 0.9 | 5.2 | 0.00 | 0.00 | 0.00 | 86 | 1018.4 |
| 20260506165517 | 54 | 0.0 | 1.7 | 0.00 | 0.00 | 0.00 | 84 | 1018.1 | |
| 20260506164518 | 55 | 0.0 | 2.6 | 0.00 | 0.00 | 0.00 | 84 | 1018.1 | |
| 20260506163537 | 54 | 113 | 0.9 | 3.5 | 0.00 | 0.00 | 0.00 | 85 | 1018.2 |
| 20260506162517 | 54 | 0.0 | 1.7 | 0.00 | 0.00 | 0.00 | 85 | 1018.1 | |
| 20260506161517 | 54 | 0.0 | 2.6 | 0.00 | 0.00 | 0.00 | 87 | 1018.0 | |
| 20260506160517 | 53 | 0.0 | 2.6 | 0.00 | 0.00 | 0.00 | 87 | 1017.9 | |
| 20260506155517 | 54 | 180 | 0.9 | 5.2 | 0.00 | 0.00 | 0.00 | 87 | 1017.5 |
| 20260506154517 | 53 | 0.0 | 2.6 | 0.00 | 0.00 | 0.00 | 87 | 1017.5 | |
| 20260506153517 | 54 | 0.0 | 3.5 | 0.00 | 0.00 | 0.00 | 88 | 1017.5 | |
| 20260506152517 | 53 | 180 | 1.7 | 7.8 | 0.00 | 0.00 | 0.00 | 89 | 1017.6 |
| 20260506151517 | 53 | 203 | 0.9 | 5.2 | 0.00 | 0.00 | 0.00 | 89 | 1017.7 |
| 20260506150557 | 53 | 158 | 0.9 | 3.5 | 0.00 | 0.00 | 0.00 | 89 | 1017.7 |
| 20260506145518 | 52 | 0.0 | 1.7 | 0.00 | 0.00 | 0.00 | 90 | 1017.9 | |
| 20260506144540 | 52 | 158 | 0.9 | 3.5 | 0.00 | 0.00 | 0.00 | 89 | 1017.7 |
| 20260506143517 | 52 | 180 | 0.9 | 3.5 | 0.00 | 0.00 | 0.00 | 90 | 1017.2 |
| 20260506142537 | 52 | 0.0 | 1.7 | 0.00 | 0.00 | 0.00 | 90 | 1017.5 | |
| 20260506141517 | 52 | 0.0 | 1.7 | 0.00 | 0.00 | 0.00 | 91 | 1017.5 | |
| 20260506140517 | 52 | 0.0 | 1.7 | 0.00 | 0.00 | 0.00 | 91 | 1017.6 | |
| 20260506135517 | 52 | 158 | 0.9 | 4.3 | 0.00 | 0.00 | 0.00 | 91 | 1017.5 |
| 20260506134517 | 52 | 0.0 | 2.6 | 0.00 | 0.00 | 0.00 | 91 | 1017.4 | |
| 20260506133517 | 52 | 0.0 | 1.7 | 0.00 | 0.00 | 0.00 | 91 | 1017.4 | |
| 20260506132517 | 52 | 0.0 | 1.7 | 0.00 | 0.00 | 0.00 | 91 | 1017.5 | |
| 20260506131517 | 52 | 0.0 | 1.7 | 0.00 | 0.00 | 0.00 | 91 | 1017.2 | |
| 20260506130517 | 52 | 0.0 | 1.7 | 0.00 | 0.00 | 0.00 | 90 | 1017.4 | |
| 20260506125602 | 52 | 0.0 | 0.9 | 0.00 | 0.00 | 0.00 | 90 | 1017.2 | |
| 20260506124519 | 52 | 0.0 | 2.6 | 0.00 | 0.00 | 0.00 | 90 | 1017.1 | |
| 20260506123517 | 52 | 135 | 0.9 | 2.6 | 0.00 | 0.00 | 0.00 | 89 | 1016.8 |
| 20260506122517 | 53 | 0.0 | 2.6 | 0.00 | 0.00 | 0.00 | 89 | 1017.1 | |
| 20260506121517 | 53 | 0.0 | 3.5 | 0.00 | 0.00 | 0.00 | 89 | 1016.9 | |
| 20260506120540 | 53 | 0.0 | 1.7 | 0.00 | 0.00 | 0.00 | 89 | 1016.8 | |
| 20260506115722 | 53 | 180 | 0.9 | 2.6 | 0.00 | 0.00 | 0.00 | 88 | 1016.7 |
| 20260506114538 | 53 | 158 | 0.9 | 4.3 | 0.00 | 0.00 | 0.00 | 89 | 1016.7 |
| 20260506113518 | 53 | 158 | 0.9 | 6.1 | 0.00 | 0.00 | 0.00 | 89 | 1016.7 |
| 20260506112539 | 53 | 0.0 | 1.7 | 0.00 | 0.00 | 0.00 | 89 | 1016.6 | |
| 20260506111518 | 53 | 0.0 | 1.7 | 0.00 | 0.00 | 0.00 | 90 | 1016.4 | |
| 20260506110517 | 52 | 0.0 | 2.6 | 0.00 | 0.00 | 0.00 | 90 | 1016.4 | |
| 20260506105517 | 53 | 0.0 | 4.3 | 0.00 | 0.00 | 0.00 | 90 | 1016.4 | |
| 20260506104517 | 52 | 0.0 | 1.7 | 0.00 | 0.00 | 0.00 | 91 | 1016.3 | |
| 20260506103516 | 52 | 0.0 | 1.7 | 0.00 | 0.00 | 0.00 | 91 | 1016.2 | |
| 20260506102518 | 52 | 0.0 | 1.7 | 0.00 | 0.00 | 0.00 | 92 | 1016.2 | |
| 20260506101517 | 52 | 0.0 | 1.7 | 0.00 | 0.00 | 0.00 | 92 | 1016.2 | |
| 20260506100538 | 51 | 0.0 | 1.7 | 0.00 | 0.00 | 0.00 | 92 | 1016.2 | |
| 20260506095517 | 51 | 0.0 | 0.9 | 0.00 | 0.00 | 0.00 | 91 | 1016.2 | |
| 20260506094518 | 51 | 0.0 | 1.7 | 0.00 | 0.00 | 0.00 | 92 | 1016.0 | |
| 20260506093517 | 52 | 0.0 | 1.7 | 0.00 | 0.00 | 0.00 | 92 | 1016.0 | |
| 20260506092516 | 52 | 0.0 | 0.0 | 0.00 | 0.00 | 0.00 | 92 | 1015.8 | |
| 20260506091518 | 52 | 0.0 | 0.0 | 0.00 | 0.00 | 0.00 | 92 | 1015.8 | |
| 20260506090516 | 52 | 0.0 | 0.0 | 0.00 | 0.00 | 0.00 | 92 | 1015.8 | |
| 20260506085516 | 52 | 0.0 | 0.0 | 0.00 | 0.00 | 0.00 | 92 | 1015.6 | |
| 20260506084517 | 53 | 0.0 | 0.0 | 0.00 | 0.00 | 0.00 | 92 | 1015.6 | |
| 20260506083518 | 53 | 0.0 | 0.0 | 0.00 | 0.00 | 0.00 | 92 | 1015.5 | |
| 20260506082519 | 53 | 0.0 | 0.0 | 0.00 | 0.00 | 0.00 | 91 | 1015.4 | |
| 20260506081600 | 53 | 0.0 | 0.0 | 0.00 | 0.00 | 0.00 | 91 | 1015.4 | |
| 20260506080522 | 53 | 0.0 | 0.0 | 0.00 | 0.00 | 0.00 | 91 | 1015.3 | |
| 20260506072523 | 54 | 0.0 | 0.0 | 0.00 | 0.00 | 0.00 | 88 | 1015.0 | |
| 20260506071540 | 55 | 0.0 | 0.0 | 0.00 | 0.00 | 0.00 | 88 | 1014.9 | |
| 20260506070518 | 55 | 0.0 | 0.0 | 0.00 | 0.00 | 0.00 | 87 | 1014.8 | |
| 20260506061536 | 56 | 0.0 | 0.0 | 0.00 | 0.00 | 0.00 | 86 | 1014.6 | |
| 20260506060537 | 56 | 0.0 | 0.0 | 0.00 | 0.00 | 0.00 | 85 | 1014.6 | |
| 20260506050518 | 59 | 0.0 | 1.7 | 0.00 | 0.00 | 0.00 | 81 | 1013.8 | |
| 20260506044519 | 59 | 0.0 | 1.7 | 0.00 | 0.00 | 0.00 | 80 | 1013.7 | |
| 20260506043518 | 59 | 0.0 | 2.6 | 0.00 | 0.00 | 0.00 | 80 | 1013.6 | |
| 20260506042519 | 60 | 0.0 | 0.0 | 0.00 | 0.00 | 0.00 | 80 | 1013.6 | |
| 20260506041518 | 60 | 0.0 | 1.7 | 0.00 | 0.00 | 0.00 | 80 | 1013.6 | |
| 20260506040518 | 60 | 0.0 | 2.6 | 0.00 | 0.00 | 0.00 | 80 | 1013.5 | |
| 20260506035519 | 60 | 0.0 | 1.7 | 0.00 | 0.00 | 0.00 | 80 | 1013.5 | |
| 20260506034518 | 60 | 0.0 | 0.0 | 0.00 | 0.00 | 0.00 | 79 | 1013.4 | |
| 20260506033558 | 60 | 0.0 | 0.0 | 0.00 | 0.00 | 0.00 | 79 | 1013.2 |